Track ONEWEB-0165 now! 10-day predictions ONEWEB-0165 is classified as:
1 48233U 21031Z 22136.53169973 .00000132 00000-0 32136-3 0 9998 2 48233 87.9057 226.3586 0002064 114.8869 245.2476 13.14503009 52260